EST,Max TemperatureF,Mean TemperatureF,Min TemperatureF,Max Dew PointF,MeanDew PointF,Min DewpointF,Max Humidity, Mean Humidity, Min Humidity, Max Sea Level PressureIn, Mean Sea Level PressureIn, Min Sea Level PressureIn, Max VisibilityMiles, Mean VisibilityMiles, Min VisibilityMiles, Max Wind SpeedMPH, Mean Wind SpeedMPH, Max Gust SpeedMPH,PrecipitationIn, CloudCover, Events, WindDirDegrees
2012-12-1,78,69,60,64,60,54,94,70,53,30.23,30.20,30.16,10,9,4,20,8,25,0.04,5,Rain,85
2012-12-2,78,73,68,68,63,61,88,75,57,30.25,30.22,30.19,10,9,4,20,11,25,0.11,6,Rain,89
2012-12-3,82,75,68,64,60,50,88,66,37,30.28,30.23,30.20,10,10,7,15,9,23,0.04,5,Rain,92
2012-12-4,77,70,64,66,56,48,83,60,36,30.27,30.22,30.18,10,10,7,15,9,21,0.00,4,,88
2012-12-5,77,72,68,64,60,54,83,68,47,30.18,30.11,30.06,10,9,7,13,6,,0.00,4,,109
2012-12-6,77,70,64,68,66,63,94,89,69,30.03,29.98,29.94,10,8,2,12,3,16,0.04,6,Rain-Thunderstorm,48
2012-12-7,77,70,64,68,66,63,100,90,74,30.02,29.97,29.93,10,9,7,12,3,18,0.00,3,Thunderstorm,167
2012-12-8,78,71,64,72,67,63,100,90,69,30.07,30.02,29.99,10,8,2,14,2,,0.67,4,Rain,93
2012-12-9,78,73,68,73,70,66,100,93,83,30.11,30.05,30.02,10,9,2,8,3,9,0.11,5,Rain-Thunderstorm,152
2012-12-10,84,76,69,75,71,68,100,88,66,30.04,29.99,29.91,10,9,4,13,3,,0.00,3,Rain,183
2012-12-11,82,76,69,73,72,66,94,91,74,30.08,29.99,29.93,10,8,3,16,8,21,0.58,5,Rain-Thunderstorm,179
2012-12-12,82,76,69,73,71,68,100,89,66,30.11,30.06,30.02,10,9,6,9,3,,0.00,4,Thunderstorm,189
2012-12-13,73,68,64,72,67,63,100,90,78,30.14,30.09,30.04,10,9,5,14,5,29,0.00,6,Rain,310
2012-12-14,77,70,62,66,62,57,100,84,50,30.16,30.12,30.09,10,8,5,15,7,23,0.11,6,Rain,344
2012-12-15,78,70,62,66,63,59,100,81,54,30.13,30.09,30.06,10,9,3,14,6,20,0.12,5,Rain,56
2012-12-16,77,70,64,68,66,63,94,85,74,30.07,30.02,29.98,10,9,4,14,6,,0.00,4,Rain,129
2012-12-17,80,73,66,68,66,63,100,83,54,30.00,29.97,29.91,10,9,5,12,3,17,0.00,5,,238
2012-12-18,82,75,66,70,64,59,100,79,54,30.04,29.97,29.91,10,8,1,14,6,21,0.00,2,Fog,263
2012-12-19,78,66,55,63,57,48,94,71,34,30.11,30.07,30.03,10,10,5,7,5,,0.00,0,,54
2012-12-20,80,71,62,66,62,57,94,76,45,30.12,30.05,29.97,10,10,10,15,5,20,0.00,2,,166
2012-12-21,71,60,48,66,49,28,88,65,33,30.20,30.07,29.96,10,10,7,21,11,29,0.00,2,,278
2012-12-22,64,53,42,32,25,5,66,41,10,30.27,30.22,30.19,10,10,7,16,10,23,0.00,0,,313
2012-12-23,68,57,46,57,44,27,94,66,40,30.27,30.21,30.17,10,10,7,8,5,,0.00,1,,324
2012-12-24,75,65,55,59,55,50,94,77,44,30.17,30.09,30.01,10,10,7,8,1,,0.00,2,,219
2012-12-25,77,66,55,63,58,54,94,78,50,30.05,30.00,29.96,10,10,7,10,2,,0.00,1,,167
2012-12-26,84,72,59,70,61,54,94,79,45,30.01,29.95,29.92,10,10,7,24,8,31,0.00,2,,248
2012-12-27,64,56,48,54,49,39,94,81,40,30.10,30.05,29.99,10,10,7,12,7,16,0.00,0,,304
2012-12-28,75,62,48,70,58,46,94,86,53,30.10,30.05,30.00,10,10,7,13,4,17,0.00,3,,167
2012-12-29,82,70,57,73,66,48,94,83,54,30.13,30.01,29.92,10,9,6,21,9,30,0.00,3,,235
2012-12-30,66,56,46,54,49,39,82,65,56,30.32,30.28,30.13,10,9,7,18,13,28,0.00,6,,24
2012-12-31,73,68,64,59,53,50,83,61,46,30.34,30.27,30.23,10,10,10,16,9,21,0.00,6,,103